| time (UTC) | temp F | wind direction | speed knots | gust knots | rain 1hr in | rain 24hr in | rain mn in | humidity % | barometer mb |
| 20260906014559 | 65 | 59 | 2.6 | 0.0 | 0.00 | 0.00 | 0.00 | 84 | 1011.7 |
| 20260906014059 | 65 | 62 | 1.7 | 0.0 | 0.00 | 0.00 | 0.00 | 85 | 1011.6 |
| 20260906013602 | 65 | 63 | 0.9 | 0.0 | 0.00 | 0.00 | 0.00 | 86 | 1011.5 |
| 20260906013105 | 65 | 84 | 0.9 | 0.0 | 0.00 | 0.00 | 0.00 | 85 | 1011.5 |
| 20260906012559 | 65 | 119 | 0.0 | 0.0 | 0.00 | 0.00 | 0.00 | 85 | 1011.6 |
| 20260906012058 | 65 | 118 | 0.0 | 0.0 | 0.00 | 0.00 | 0.00 | 85 | 1011.6 |
| 20260906011602 | 65 | 118 | 0.0 | 0.0 | 0.00 | 0.00 | 0.00 | 85 | 1011.6 |
| 20260906011058 | 66 | 118 | 0.0 | 0.0 | 0.00 | 0.00 | 0.00 | 85 | 1011.6 |
| 20260906010557 | 66 | 118 | 0.9 | 0.0 | 0.00 | 0.00 | 0.00 | 85 | 1011.6 |
| 20260906010056 | 66 | 118 | 0.9 | 0.0 | 0.00 | 0.00 | 0.00 | 85 | 1011.5 |
| 20260906005558 | 66 | 119 | 1.7 | 0.0 | 0.00 | 0.00 | 0.00 | 85 | 1011.4 |
| 20260906005056 | 66 | 119 | 2.6 | 0.0 | 0.00 | 0.00 | 0.00 | 84 | 1011.4 |
| 20260906004557 | 66 | 118 | 2.6 | 0.0 | 0.00 | 0.00 | 0.00 | 85 | 1011.4 |
| 20260906004055 | 67 | 101 | 2.6 | 0.0 | 0.00 | 0.00 | 0.00 | 84 | 1011.4 |
| 20260906003555 | 67 | 42 | 1.7 | 0.0 | 0.00 | 0.00 | 0.00 | 83 | 1011.4 |
| 20260906003055 | 67 | 51 | 1.7 | 0.0 | 0.00 | 0.00 | 0.00 | 83 | 1011.4 |
| 20260906002554 | 67 | 80 | 2.6 | 0.0 | 0.00 | 0.00 | 0.00 | 83 | 1011.3 |
| 20260906002058 | 67 | 42 | 3.5 | 0.0 | 0.00 | 0.00 | 0.00 | 83 | 1011.3 |
| 20260906001555 | 67 | 57 | 3.5 | 0.0 | 0.00 | 0.00 | 0.00 | 82 | 1011.4 |
| 20260906001053 | 67 | 355 | 3.5 | 0.0 | 0.00 | 0.00 | 0.00 | 82 | 1011.2 |
| 20260906000556 | 67 | 13 | 3.5 | 0.0 | 0.00 | 0.00 | 0.00 | 82 | 1011.2 |
| 20260906000059 | 67 | 65 | 2.6 | 0.0 | 0.00 | 0.00 | 0.00 | 82 | 1011.2 |
| 20260905235552 | 67 | 5 | 2.6 | 0.0 | 0.00 | 0.00 | 0.00 | 81 | 1011.1 |
| 20260905235052 | 67 | 51 | 2.6 | 0.0 | 0.00 | 0.00 | 0.00 | 81 | 1011.1 |
| 20260905234556 | 67 | 360 | 2.6 | 0.0 | 0.00 | 0.00 | 0.00 | 81 | 1011.0 |
| 20260905234051 | 68 | 25 | 2.6 | 0.0 | 0.00 | 0.00 | 0.00 | 81 | 1010.9 |
| 20260905233551 | 68 | 59 | 2.6 | 0.0 | 0.00 | 0.00 | 0.00 | 81 | 1010.9 |
| 20260905233053 | 68 | 32 | 2.6 | 0.0 | 0.00 | 0.00 | 0.00 | 79 | 1010.9 |
| 20260905232551 | 68 | 13 | 2.6 | 0.0 | 0.00 | 0.00 | 0.00 | 80 | 1010.9 |
| 20260905232055 | 68 | 19 | 1.7 | 0.0 | 0.00 | 0.00 | 0.00 | 80 | 1010.9 |
| 20260905231551 | 68 | 22 | 1.7 | 0.0 | 0.00 | 0.00 | 0.00 | 80 | 1010.9 |
| 20260905231050 | 68 | 28 | 1.7 | 0.0 | 0.00 | 0.00 | 0.00 | 78 | 1011.0 |
| 20260905230555 | 68 | 71 | 1.7 | 0.0 | 0.00 | 0.00 | 0.00 | 78 | 1011.0 |
| 20260905230049 | 68 | 73 | 1.7 | 0.0 | 0.00 | 0.00 | 0.00 | 77 | 1011.1 |
| 20260905225550 | 68 | 96 | 2.6 | 0.0 | 0.00 | 0.00 | 0.00 | 77 | 1011.0 |
| 20260905225051 | 68 | 90 | 2.6 | 0.0 | 0.00 | 0.00 | 0.00 | 78 | 1010.9 |
| 20260905224549 | 68 | 58 | 2.6 | 0.0 | 0.00 | 0.00 | 0.00 | 78 | 1010.8 |
| 20260905224049 | 68 | 82 | 3.5 | 0.0 | 0.00 | 0.00 | 0.00 | 78 | 1010.8 |
| 20260905223548 | 68 | 78 | 4.3 | 0.0 | 0.00 | 0.00 | 0.00 | 77 | 1010.6 |
| 20260905223048 | 68 | 79 | 4.3 | 0.0 | 0.00 | 0.00 | 0.00 | 77 | 1010.6 |
| 20260905222548 | 68 | 53 | 4.3 | 0.0 | 0.00 | 0.00 | 0.00 | 76 | 1010.5 |
| 20260905222047 | 68 | 61 | 3.5 | 0.0 | 0.00 | 0.00 | 0.00 | 78 | 1010.5 |
| 20260905221549 | 68 | 42 | 3.5 | 0.0 | 0.00 | 0.00 | 0.00 | 77 | 1010.4 |
| 20260905221047 | 68 | 66 | 3.5 | 0.0 | 0.00 | 0.00 | 0.00 | 78 | 1010.4 |
| 20260905220547 | 68 | 59 | 3.5 | 0.0 | 0.00 | 0.00 | 0.00 | 78 | 1010.3 |
| 20260905220047 | 68 | 33 | 3.5 | 0.0 | 0.00 | 0.00 | 0.00 | 79 | 1010.3 |
| 20260905215547 | 68 | 63 | 3.5 | 0.0 | 0.00 | 0.00 | 0.00 | 78 | 1010.3 |
| 20260905215047 | 68 | 38 | 3.5 | 0.0 | 0.00 | 0.00 | 0.00 | 80 | 1010.3 |
| 20260905214550 | 68 | 30 | 3.5 | 0.0 | 0.00 | 0.00 | 0.00 | 80 | 1010.4 |
| 20260905214050 | 68 | 32 | 3.5 | 0.0 | 0.00 | 0.00 | 0.00 | 78 | 1010.4 |
| 20260905213546 | 68 | 41 | 4.3 | 0.0 | 0.00 | 0.00 | 0.00 | 76 | 1010.4 |
| 20260905213048 | 69 | 51 | 4.3 | 0.0 | 0.00 | 0.00 | 0.00 | 76 | 1010.4 |
| 20260905212546 | 69 | 56 | 4.3 | 0.0 | 0.00 | 0.00 | 0.00 | 77 | 1010.2 |
| 20260905212047 | 69 | 51 | 4.3 | 0.0 | 0.00 | 0.00 | 0.00 | 76 | 1010.3 |
| 20260905211602 | 69 | 57 | 4.3 | 0.0 | 0.00 | 0.00 | 0.00 | 74 | 1010.3 |
| 20260905211049 | 69 | 60 | 5.2 | 0.0 | 0.00 | 0.00 | 0.00 | 72 | 1010.3 |
| 20260905210545 | 69 | 61 | 6.1 | 0.0 | 0.00 | 0.00 | 0.00 | 73 | 1010.3 |
| 20260905210058 | 69 | 66 | 7.0 | 0.0 | 0.00 | 0.00 | 0.00 | 73 | 1010.5 |
| 20260905205545 | 70 | 86 | 7.8 | 0.0 | 0.00 | 0.00 | 0.00 | 74 | 1010.4 |
| 20260905205045 | 70 | 52 | 6.1 | 0.0 | 0.00 | 0.00 | 0.00 | 73 | 1010.4 |
| 20260905204547 | 70 | 61 | 4.3 | 0.0 | 0.00 | 0.00 | 0.00 | 74 | 1010.3 |
| 20260905204048 | 70 | 30 | 5.2 | 0.0 | 0.00 | 0.00 | 0.00 | 72 | 1010.3 |
| 20260905203545 | 70 | 42 | 5.2 | 0.0 | 0.00 | 0.00 | 0.00 | 73 | 1010.3 |
| 20260905203045 | 70 | 25 | 5.2 | 0.0 | 0.00 | 0.00 | 0.00 | 75 | 1010.2 |
| 20260905202545 | 71 | 31 | 4.3 | 0.0 | 0.00 | 0.00 | 0.00 | 73 | 1010.2 |
| 20260905202044 | 71 | 33 | 4.3 | 0.0 | 0.00 | 0.00 | 0.00 | 71 | 1010.2 |
| 20260905201551 | 71 | 5 | 4.3 | 0.0 | 0.00 | 0.00 | 0.00 | 73 | 1010.2 |
| 20260905201043 | 71 | 5 | 3.5 | 0.0 | 0.00 | 0.00 | 0.00 | 71 | 1010.2 |
| 20260905200544 | 71 | 27 | 4.3 | 0.0 | 0.00 | 0.00 | 0.00 | 70 | 1010.2 |
| 20260905200045 | 71 | 37 | 5.2 | 0.0 | 0.00 | 0.00 | 0.00 | 71 | 1010.2 |
| 20260905195543 | 71 | 20 | 4.3 | 0.0 | 0.00 | 0.00 | 0.00 | 70 | 1010.0 |
| 20260905195043 | 71 | 43 | 3.5 | 0.0 | 0.00 | 0.00 | 0.00 | 70 | 1010.0 |
| 20260905194543 | 70 | 49 | 3.5 | 0.0 | 0.00 | 0.00 | 0.00 | 69 | 1010.0 |
| 20260905194047 | 70 | 66 | 3.5 | 0.0 | 0.00 | 0.00 | 0.00 | 69 | 1010.0 |
| 20260905193545 | 70 | 29 | 3.5 | 0.0 | 0.00 | 0.00 | 0.00 | 71 | 1010.0 |
| 20260905193043 | 70 | 39 | 3.5 | 0.0 | 0.00 | 0.00 | 0.00 | 68 | 1010.0 |
| 20260905192543 | 70 | 68 | 3.5 | 0.0 | 0.00 | 0.00 | 0.00 | 71 | 1010.0 |
| 20260905192044 | 70 | 88 | 3.5 | 0.0 | 0.00 | 0.00 | 0.00 | 71 | 1010.0 |
| 20260905191542 | 70 | 77 | 3.5 | 0.0 | 0.00 | 0.00 | 0.00 | 72 | 1010.1 |
| 20260905191045 | 70 | 36 | 3.5 | 0.0 | 0.00 | 0.00 | 0.00 | 71 | 1010.1 |
| 20260905190542 | 70 | 55 | 5.2 | 0.0 | 0.00 | 0.00 | 0.00 | 73 | 1010.2 |
| 20260905190042 | 71 | 55 | 6.1 | 0.0 | 0.00 | 0.00 | 0.00 | 71 | 1010.2 |
| 20260905185542 | 71 | 49 | 6.1 | 0.0 | 0.00 | 0.00 | 0.00 | 70 | 1010.1 |
| 20260905185041 | 71 | 50 | 6.1 | 0.0 | 0.00 | 0.00 | 0.00 | 67 | 1010.1 |
| 20260905184541 | 71 | 61 | 5.2 | 0.0 | 0.00 | 0.00 | 0.00 | 67 | 1010.1 |
| 20260905184043 | 71 | 38 | 4.3 | 0.0 | 0.00 | 0.00 | 0.00 | 69 | 1010.0 |
| 20260905183541 | 71 | 67 | 4.3 | 0.0 | 0.00 | 0.00 | 0.00 | 71 | 1010.1 |
| 20260905183044 | 71 | 67 | 4.3 | 0.0 | 0.00 | 0.00 | 0.00 | 70 | 1010.1 |
| 20260905182540 | 71 | 50 | 4.3 | 0.0 | 0.00 | 0.00 | 0.00 | 69 | 1010.0 |
| 20260905182041 | 71 | 46 | 4.3 | 0.0 | 0.00 | 0.00 | 0.00 | 71 | 1010.0 |
| 20260905181541 | 71 | 55 | 4.3 | 0.0 | 0.00 | 0.00 | 0.00 | 69 | 1010.1 |
| 20260905181040 | 71 | 30 | 3.5 | 0.0 | 0.00 | 0.00 | 0.00 | 69 | 1010.0 |
| 20260905180540 | 72 | 26 | 3.5 | 0.0 | 0.00 | 0.00 | 0.00 | 68 | 1009.9 |
| 20260905180039 | 72 | 40 | 3.5 | 0.0 | 0.00 | 0.00 | 0.00 | 68 | 1009.9 |
| 20260905175539 | 71 | 355 | 2.6 | 0.0 | 0.00 | 0.00 | 0.00 | 70 | 1009.9 |
| 20260905175040 | 71 | 106 | 3.5 | 0.0 | 0.00 | 0.00 | 0.00 | 71 | 1009.8 |
| 20260905174537 | 70 | 120 | 4.3 | 0.0 | 0.00 | 0.00 | 0.00 | 73 | 1009.9 |
| 20260905174038 | 70 | 120 | 5.2 | 0.0 | 0.00 | 0.00 | 0.00 | 74 | 1010.0 |
| 20260905173541 | 69 | 123 | 6.1 | 0.0 | 0.00 | 0.00 | 0.00 | 75 | 1010.0 |
| 20260905173054 | 69 | 117 | 6.1 | 0.0 | 0.00 | 0.00 | 0.00 | 76 | 1010.0 |
| 20260905172537 | 69 | 116 | 6.1 | 0.0 | 0.00 | 0.00 | 0.00 | 76 | 1010.0 |
| 20260905172041 | 69 | 119 | 6.1 | 0.0 | 0.00 | 0.00 | 0.00 | 75 | 1010.0 |
| 20260905171539 | 70 | 106 | 6.1 | 0.0 | 0.00 | 0.00 | 0.00 | 73 | 1010.0 |
| 20260905171036 | 70 | 96 | 5.2 | 0.0 | 0.00 | 0.00 | 0.00 | 70 | 1009.9 |
| 20260905170536 | 71 | 69 | 2.6 | 0.0 | 0.00 | 0.00 | 0.00 | 69 | 1010.0 |
| 20260905170038 | 71 | 355 | 1.7 | 0.0 | 0.00 | 0.00 | 0.00 | 69 | 1009.9 |
| 20260905165536 | 71 | 355 | 2.6 | 0.0 | 0.00 | 0.00 | 0.00 | 70 | 1009.9 |
| 20260905165038 | 71 | 325 | 1.7 | 0.0 | 0.00 | 0.00 | 0.00 | 71 | 1009.9 |
| 20260905164535 | 71 | 340 | 1.7 | 0.0 | 0.00 | 0.00 | 0.00 | 69 | 1009.8 |
| 20260905164035 | 70 | 36 | 2.6 | 0.0 | 0.00 | 0.00 | 0.00 | 71 | 1009.9 |
| 20260905163534 | 70 | 103 | 2.6 | 0.0 | 0.00 | 0.00 | 0.00 | 71 | 1009.9 |
| 20260905163034 | 70 | 70 | 2.6 | 0.0 | 0.00 | 0.00 | 0.00 | 70 | 1009.8 |
| 20260905162534 | 70 | 55 | 2.6 | 0.0 | 0.00 | 0.00 | 0.00 | 70 | 1010.0 |
| 20260905162034 | 70 | 61 | 1.7 | 0.0 | 0.00 | 0.00 | 0.00 | 69 | 1010.0 |
| 20260905161535 | 70 | 348 | 1.7 | 0.0 | 0.00 | 0.00 | 0.00 | 70 | 1010.0 |
| 20260905161033 | 70 | 341 | 1.7 | 0.0 | 0.00 | 0.00 | 0.00 | 72 | 1010.0 |
| 20260905160533 | 70 | 360 | 0.9 | 0.0 | 0.00 | 0.00 | 0.00 | 71 | 1010.0 |
| 20260905160035 | 70 | 55 | 0.9 | 0.0 | 0.00 | 0.00 | 0.00 | 69 | 1010.0 |
| 20260905155531 | 70 | 9 | 1.7 | 0.0 | 0.00 | 0.00 | 0.00 | 71 | 1010.0 |
| 20260905155030 | 70 | 51 | 1.7 | 0.0 | 0.00 | 0.00 | 0.00 | 72 | 1010.0 |
| 20260905154534 | 70 | 346 | 1.7 | 0.0 | 0.00 | 0.00 | 0.00 | 71 | 1010.0 |
| 20260905154034 | 70 | 360 | 1.7 | 0.0 | 0.00 | 0.00 | 0.00 | 73 | 1010.1 |
| 20260905153529 | 70 | 360 | 1.7 | 0.0 | 0.00 | 0.00 | 0.00 | 71 | 1010.1 |
| 20260905153029 | 69 | 21 | 1.7 | 0.0 | 0.00 | 0.00 | 0.00 | 72 | 1010.0 |
| 20260905152529 | 69 | 24 | 1.7 | 0.0 | 0.00 | 0.00 | 0.00 | 71 | 1010.1 |
| 20260905152031 | 69 | 295 | 2.6 | 0.0 | 0.00 | 0.00 | 0.00 | 74 | 1010.0 |
| 20260905151528 | 69 | 292 | 3.5 | 0.0 | 0.00 | 0.00 | 0.00 | 74 | 1010.3 |
| 20260905151032 | 69 | 292 | 3.5 | 0.0 | 0.00 | 0.00 | 0.00 | 73 | 1010.2 |
| 20260905150526 | 69 | 302 | 3.5 | 0.0 | 0.00 | 0.00 | 0.00 | 73 | 1010.2 |
| 20260905150025 | 69 | 321 | 4.3 | 0.0 | 0.00 | 0.00 | 0.00 | 75 | 1010.3 |
| 20260905145525 | 68 | 327 | 4.3 | 0.0 | 0.00 | 0.00 | 0.00 | 75 | 1010.3 |
| 20260905145024 | 68 | 350 | 4.3 | 0.0 | 0.00 | 0.00 | 0.00 | 76 | 1010.3 |
| 20260905144524 | 68 | 355 | 3.5 | 0.0 | 0.00 | 0.00 | 0.00 | 74 | 1010.2 |
| 20260905144025 | 68 | 355 | 4.3 | 0.0 | 0.00 | 0.00 | 0.00 | 75 | 1010.2 |
| 20260905143523 | 68 | 336 | 4.3 | 0.0 | 0.00 | 0.00 | 0.00 | 76 | 1010.3 |
| 20260905143029 | 67 | 355 | 5.2 | 0.0 | 0.00 | 0.00 | 0.00 | 78 | 1010.3 |
| 20260905142523 | 67 | 5 | 5.2 | 0.0 | 0.00 | 0.00 | 0.00 | 76 | 1010.4 |
| 20260905142026 | 67 | 5 | 6.1 | 0.0 | 0.00 | 0.00 | 0.00 | 77 | 1010.4 |
| 20260905141528 | 67 | 5 | 6.1 | 0.0 | 0.00 | 0.00 | 0.00 | 77 | 1010.5 |
| 20260905141025 | 67 | 355 | 5.2 | 0.0 | 0.00 | 0.00 | 0.00 | 77 | 1010.5 |
| 20260905140524 | 67 | 347 | 5.2 | 0.0 | 0.00 | 0.00 | 0.00 | 76 | 1010.4 |
| 20260905140021 | 67 | 360 | 5.2 | 0.0 | 0.00 | 0.00 | 0.00 | 78 | 1010.4 |
| 20260905135521 | 66 | 360 | 5.2 | 0.0 | 0.00 | 0.00 | 0.00 | 78 | 1010.4 |
| 20260905135022 | 66 | 10 | 5.2 | 0.0 | 0.00 | 0.00 | 0.00 | 78 | 1010.5 |
| 20260905134521 | 66 | 355 | 4.3 | 0.0 | 0.00 | 0.00 | 0.00 | 78 | 1010.4 |
| 20260905134024 | 66 | 360 | 4.3 | 0.0 | 0.00 | 0.00 | 0.00 | 77 | 1010.5 |
| 20260905133521 | 66 | 342 | 4.3 | 0.0 | 0.00 | 0.00 | 0.00 | 79 | 1010.5 |
| 20260905133020 | 65 | 337 | 4.3 | 0.0 | 0.00 | 0.00 | 0.00 | 78 | 1010.7 |
| 20260905132520 | 65 | 355 | 4.3 | 0.0 | 0.00 | 0.00 | 0.00 | 78 | 1010.8 |
| 20260905132022 | 66 | 348 | 5.2 | 0.0 | 0.00 | 0.00 | 0.00 | 79 | 1010.9 |
| 20260905131524 | 66 | 355 | 5.2 | 0.0 | 0.00 | 0.00 | 0.00 | 78 | 1010.9 |
| 20260905131020 | 66 | 338 | 5.2 | 0.0 | 0.00 | 0.00 | 0.00 | 78 | 1010.8 |
| 20260905130520 | 66 | 355 | 5.2 | 0.0 | 0.00 | 0.00 | 0.00 | 79 | 1010.9 |
| 20260905130020 | 65 | 355 | 5.2 | 0.0 | 0.00 | 0.00 | 0.00 | 81 | 1010.8 |
| 20260905125519 | 65 | 355 | 6.1 | 0.0 | 0.00 | 0.00 | 0.00 | 81 | 1010.8 |
| 20260905125019 | 65 | 360 | 7.0 | 0.0 | 0.00 | 0.00 | 0.00 | 81 | 1010.8 |
| 20260905124529 | 65 | 344 | 7.0 | 0.0 | 0.00 | 0.00 | 0.00 | 81 | 1010.7 |
| 20260905124020 | 65 | 338 | 7.0 | 0.0 | 0.00 | 0.00 | 0.00 | 81 | 1010.6 |
| 20260905123517 | 65 | 342 | 7.0 | 0.0 | 0.00 | 0.00 | 0.00 | 82 | 1010.6 |
| 20260905123017 | 65 | 11 | 6.1 | 0.0 | 0.00 | 0.00 | 0.00 | 80 | 1010.6 |
| 20260905122517 | 65 | 355 | 5.2 | 0.0 | 0.00 | 0.00 | 0.00 | 80 | 1010.5 |
| 20260905122016 | 65 | 9 | 6.1 | 0.0 | 0.00 | 0.00 | 0.00 | 82 | 1010.5 |
| 20260905121516 | 65 | 45 | 6.1 | 0.0 | 0.00 | 0.00 | 0.00 | 82 | 1010.6 |
| 20260905121015 | 64 | 5 | 5.2 | 0.0 | 0.00 | 0.00 | 0.00 | 82 | 1010.5 |
| 20260905120514 | 64 | 21 | 4.3 | 0.0 | 0.00 | 0.00 | 0.00 | 81 | 1010.4 |
| 20260905120014 | 64 | 37 | 4.3 | 0.0 | 0.00 | 0.00 | 0.00 | 82 | 1010.2 |
| 20260905115515 | 64 | 355 | 4.3 | 0.0 | 0.00 | 0.00 | 0.00 | 81 | 1010.3 |
| 20260905115013 | 64 | 5 | 4.3 | 0.0 | 0.00 | 0.00 | 0.00 | 83 | 1010.2 |
| 20260905114512 | 64 | 44 | 4.3 | 0.0 | 0.00 | 0.00 | 0.00 | 82 | 1010.1 |
| 20260905114015 | 63 | 24 | 4.3 | 0.0 | 0.00 | 0.00 | 0.00 | 83 | 1009.9 |
| 20260905113512 | 63 | 21 | 3.5 | 0.0 | 0.00 | 0.00 | 0.00 | 83 | 1010.0 |
| 20260905113011 | 63 | 61 | 3.5 | 0.0 | 0.00 | 0.00 | 0.00 | 84 | 1009.9 |
| 20260905112512 | 62 | 36 | 2.6 | 0.0 | 0.00 | 0.00 | 0.00 | 83 | 1009.8 |
| 20260905112011 | 62 | 26 | 2.6 | 0.0 | 0.00 | 0.00 | 0.00 | 83 | 1009.8 |
| 20260905111512 | 62 | 88 | 2.6 | 0.0 | 0.00 | 0.00 | 0.00 | 84 | 1009.6 |
| 20260905111011 | 62 | 67 | 3.5 | 0.0 | 0.00 | 0.00 | 0.00 | 84 | 1009.6 |
| 20260905110516 | 63 | 59 | 3.5 | 0.0 | 0.00 | 0.00 | 0.00 | 84 | 1009.4 |
| 20260905110010 | 63 | 65 | 3.5 | 0.0 | 0.00 | 0.00 | 0.00 | 84 | 1009.4 |
| 20260905105510 | 62 | 58 | 3.5 | 0.0 | 0.00 | 0.00 | 0.00 | 83 | 1009.4 |
| 20260905105013 | 62 | 63 | 3.5 | 0.0 | 0.00 | 0.00 | 0.00 | 84 | 1009.4 |
| 20260905104510 | 62 | 60 | 3.5 | 0.0 | 0.00 | 0.00 | 0.00 | 85 | 1009.3 |
| 20260905104009 | 62 | 54 | 3.5 | 0.0 | 0.00 | 0.00 | 0.00 | 84 | 1009.4 |
| 20260905103510 | 62 | 74 | 3.5 | 0.0 | 0.00 | 0.00 | 0.00 | 84 | 1009.3 |
| 20260905103010 | 62 | 102 | 4.3 | 0.0 | 0.00 | 0.00 | 0.00 | 85 | 1009.3 |
| 20260905102509 | 62 | 27 | 5.2 | 0.0 | 0.00 | 0.00 | 0.00 | 85 | 1009.2 |
| 20260905102008 | 62 | 22 | 4.3 | 0.0 | 0.00 | 0.00 | 0.00 | 85 | 1009.1 |
| 20260905101516 | 62 | 55 | 3.5 | 0.0 | 0.00 | 0.00 | 0.00 | 85 | 1009.1 |
| 20260905101006 | 62 | 63 | 3.5 | 0.0 | 0.00 | 0.00 | 0.00 | 85 | 1009.0 |
| 20260905100506 | 62 | 57 | 3.5 | 0.0 | 0.00 | 0.00 | 0.00 | 85 | 1009.0 |
| 20260905100006 | 63 | 36 | 3.5 | 0.0 | 0.00 | 0.00 | 0.00 | 84 | 1008.9 |
| 20260905095504 | 63 | 59 | 3.5 | 0.0 | 0.00 | 0.00 | 0.00 | 84 | 1008.9 |
| 20260905095007 | 63 | 82 | 4.3 | 0.0 | 0.00 | 0.00 | 0.00 | 85 | 1009.0 |
| 20260905094504 | 63 | 32 | 4.3 | 0.0 | 0.00 | 0.00 | 0.00 | 86 | 1009.2 |
| 20260905094004 | 63 | 28 | 4.3 | 0.0 | 0.00 | 0.00 | 0.00 | 86 | 1009.1 |
| 20260905093503 | 63 | 28 | 5.2 | 0.0 | 0.00 | 0.00 | 0.00 | 86 | 1009.1 |
| 20260905093004 | 64 | 26 | 6.1 | 0.0 | 0.00 | 0.00 | 0.00 | 86 | 1008.9 |
| 20260905092503 | 64 | 5 | 7.0 | 0.0 | 0.00 | 0.00 | 0.00 | 86 | 1009.0 |
| 20260905092003 | 64 | 10 | 7.0 | 0.0 | 0.00 | 0.00 | 0.00 | 85 | 1008.9 |
| 20260905091503 | 64 | 18 | 7.0 | 0.0 | 0.00 | 0.00 | 0.00 | 86 | 1008.9 |
| 20260905091005 | 63 | 5 | 7.0 | 0.0 | 0.00 | 0.00 | 0.00 | 86 | 1008.9 |
| 20260905090500 | 63 | 26 | 6.1 | 0.0 | 0.00 | 0.00 | 0.00 | 86 | 1009.1 |
| 20260905090100 | 63 | 10 | 5.2 | 0.0 | 0.00 | 0.00 | 0.00 | 86 | 1009.1 |
| 20260905085602 | 63 | 19 | 5.2 | 0.0 | 0.00 | 0.00 | 0.00 | 86 | 1008.9 |
| 20260905085058 | 63 | 38 | 4.3 | 0.0 | 0.00 | 0.00 | 0.00 | 85 | 1009.0 |
| 20260905084600 | 63 | 57 | 4.3 | 0.0 | 0.00 | 0.00 | 0.00 | 85 | 1009.0 |
| 20260905084057 | 64 | 57 | 4.3 | 0.0 | 0.00 | 0.00 | 0.00 | 86 | 1009.1 |
| 20260905083555 | 64 | 50 | 4.3 | 0.0 | 0.00 | 0.00 | 0.00 | 85 | 1009.0 |
| 20260905083056 | 64 | 58 | 4.3 | 0.0 | 0.00 | 0.00 | 0.00 | 85 | 1009.0 |
| 20260905082555 | 64 | 38 | 4.3 | 0.0 | 0.00 | 0.00 | 0.00 | 86 | 1009.0 |
| 20260905082055 | 64 | 38 | 4.3 | 0.0 | 0.00 | 0.00 | 0.00 | 87 | 1009.1 |
| 20260905081554 | 64 | 46 | 3.5 | 0.0 | 0.00 | 0.00 | 0.00 | 85 | 1009.0 |
| 20260905081055 | 65 | 33 | 4.3 | 0.0 | 0.00 | 0.00 | 0.00 | 85 | 1009.1 |
| 20260905080555 | 65 | 48 | 4.3 | 0.0 | 0.00 | 0.00 | 0.00 | 84 | 1009.1 |
| 20260905075552 | 65 | 25 | 5.2 | 0.0 | 0.00 | 0.00 | 0.00 | 84 | 1009.1 |
| 20260905075051 | 65 | 17 | 6.1 | 0.0 | 0.00 | 0.00 | 0.00 | 84 | 1009.2 |
| 20260905074551 | 65 | 360 | 6.1 | 0.0 | 0.00 | 0.00 | 0.00 | 85 | 1009.2 |
| 20260905074051 | 65 | 21 | 6.1 | 0.0 | 0.00 | 0.00 | 0.00 | 85 | 1009.3 |
| 20260905073555 | 65 | 22 | 5.2 | 0.0 | 0.00 | 0.00 | 0.00 | 83 | 1009.3 |
| 20260905073050 | 65 | 5 | 4.3 | 0.0 | 0.00 | 0.00 | 0.00 | 83 | 1009.4 |
| 20260905072548 | 65 | 40 | 4.3 | 0.0 | 0.00 | 0.00 | 0.00 | 84 | 1009.2 |
| 20260905072049 | 64 | 48 | 3.5 | 0.0 | 0.00 | 0.00 | 0.00 | 84 | 1009.2 |
| 20260905071549 | 64 | 34 | 2.6 | 0.0 | 0.00 | 0.00 | 0.00 | 84 | 1009.3 |
| 20260905071049 | 65 | 59 | 1.7 | 0.0 | 0.00 | 0.00 | 0.00 | 84 | 1009.3 |
| 20260905070548 | 65 | 113 | 1.7 | 0.0 | 0.00 | 0.00 | 0.00 | 85 | 1009.3 |
| 20260905070051 | 65 | 87 | 1.7 | 0.0 | 0.00 | 0.00 | 0.00 | 85 | 1009.5 |
| 20260905065548 | 65 | 94 | 2.6 | 0.0 | 0.00 | 0.00 | 0.00 | 84 | 1009.4 |
| 20260905065048 | 65 | 116 | 3.5 | 0.0 | 0.00 | 0.00 | 0.00 | 84 | 1009.4 |
| 20260905064547 | 66 | 60 | 4.3 | 0.0 | 0.00 | 0.00 | 0.00 | 85 | 1009.6 |
| 20260905064048 | 66 | 10 | 4.3 | 0.0 | 0.00 | 0.00 | 0.00 | 85 | 1009.5 |
| 20260905063547 | 65 | 339 | 5.2 | 0.0 | 0.00 | 0.00 | 0.00 | 85 | 1009.4 |
| 20260905063055 | 65 | 336 | 5.2 | 0.0 | 0.00 | 0.00 | 0.00 | 86 | 1009.4 |
| 20260905062545 | 64 | 336 | 2.6 | 0.0 | 0.00 | 0.00 | 0.00 | 86 | 1009.4 |
| 20260905062044 | 64 | 336 | 0.9 | 0.0 | 0.00 | 0.00 | 0.00 | 86 | 1009.6 |
| 20260905061545 | 64 | 122 | 0.0 | 0.0 | 0.00 | 0.00 | 0.00 | 85 | 1009.7 |
| 20260905061044 | 64 | 122 | 0.9 | 0.0 | 0.00 | 0.00 | 0.00 | 84 | 1009.6 |
| 20260905060543 | 65 | 122 | 1.7 | 0.0 | 0.00 | 0.00 | 0.00 | 85 | 1009.5 |
| 20260905060042 | 65 | 119 | 2.6 | 0.0 | 0.00 | 0.00 | 0.00 | 85 | 1009.5 |
| 20260905055542 | 65 | 111 | 2.6 | 0.0 | 0.00 | 0.00 | 0.00 | 85 | 1009.6 |
| 20260905055040 | 65 | 101 | 2.6 | 0.0 | 0.00 | 0.00 | 0.00 | 84 | 1009.6 |
| 20260905054551 | 66 | 107 | 0.9 | 0.0 | 0.00 | 0.00 | 0.00 | 84 | 1009.7 |
| 20260905054039 | 66 | 79 | 0.9 | 0.0 | 0.00 | 0.00 | 0.00 | 82 | 1009.7 |
| 20260905053538 | 66 | 73 | 1.7 | 0.0 | 0.00 | 0.00 | 0.00 | 82 | 1009.7 |
| 20260905053036 | 67 | 94 | 2.6 | 0.0 | 0.00 | 0.00 | 0.00 | 81 | 1009.7 |
| 20260905052538 | 67 | 73 | 3.5 | 0.0 | 0.00 | 0.00 | 0.00 | 80 | 1009.8 |
| 20260905052035 | 67 | 80 | 4.3 | 0.0 | 0.00 | 0.00 | 0.00 | 81 | 1009.8 |
| 20260905051534 | 67 | 355 | 4.3 | 0.0 | 0.00 | 0.00 | 0.00 | 78 | 1009.9 |
| 20260905051033 | 67 | 346 | 4.3 | 0.0 | 0.00 | 0.00 | 0.00 | 79 | 1009.9 |
| 20260905050534 | 67 | 346 | 5.2 | 0.0 | 0.00 | 0.00 | 0.00 | 79 | 1010.0 |
| 20260905050033 | 68 | 342 | 4.3 | 0.0 | 0.00 | 0.00 | 0.00 | 78 | 1010.0 |
| 20260905045532 | 68 | 355 | 4.3 | 0.0 | 0.00 | 0.00 | 0.00 | 79 | 1010.0 |
| 20260905045033 | 68 | 15 | 4.3 | 0.0 | 0.00 | 0.00 | 0.00 | 79 | 1009.9 |
| 20260905044532 | 68 | 9 | 4.3 | 0.0 | 0.00 | 0.00 | 0.00 | 79 | 1010.0 |
| 20260905044031 | 68 | 360 | 4.3 | 0.0 | 0.00 | 0.00 | 0.00 | 79 | 1010.0 |
| 20260905043531 | 68 | 5 | 4.3 | 0.0 | 0.00 | 0.00 | 0.00 | 77 | 1010.1 |
| 20260905043030 | 67 | 16 | 3.5 | 0.0 | 0.00 | 0.00 | 0.00 | 79 | 1010.1 |
| 20260905042529 | 67 | 15 | 3.5 | 0.0 | 0.00 | 0.00 | 0.00 | 79 | 1010.0 |
| 20260905042029 | 67 | 39 | 2.6 | 0.0 | 0.00 | 0.00 | 0.00 | 78 | 1010.0 |
| 20260905041528 | 67 | 47 | 1.7 | 0.0 | 0.00 | 0.00 | 0.00 | 77 | 1010.0 |
| 20260905041027 | 68 | 63 | 1.7 | 0.0 | 0.00 | 0.00 | 0.00 | 77 | 1010.0 |
| 20260905040527 | 68 | 96 | 1.7 | 0.0 | 0.00 | 0.00 | 0.00 | 77 | 1010.1 |
| 20260905040032 | 68 | 70 | 2.6 | 0.0 | 0.00 | 0.00 | 0.00 | 78 | 1010.0 |
| 20260905035525 | 68 | 57 | 2.6 | 0.0 | 0.00 | 0.00 | 0.00 | 76 | 1010.0 |
| 20260905035026 | 68 | 58 | 2.6 | 0.0 | 0.00 | 0.00 | 0.00 | 75 | 1010.0 |
| 20260905034530 | 68 | 5 | 3.5 | 0.0 | 0.00 | 0.00 | 0.00 | 75 | 1010.0 |
| 20260905034026 | 68 | 36 | 3.5 | 0.0 | 0.00 | 0.00 | 0.00 | 76 | 1010.0 |
| 20260905033525 | 68 | 10 | 3.5 | 0.0 | 0.00 | 0.00 | 0.00 | 78 | 1010.0 |
| 20260905033030 | 68 | 47 | 3.5 | 0.0 | 0.00 | 0.00 | 0.00 | 76 | 1009.8 |
| 20260905032525 | 68 | 28 | 3.5 | 0.0 | 0.00 | 0.00 | 0.00 | 78 | 1009.9 |
| 20260905032025 | 68 | 30 | 4.3 | 0.0 | 0.00 | 0.00 | 0.00 | 78 | 1010.0 |
| 20260905031524 | 68 | 11 | 5.2 | 0.0 | 0.00 | 0.00 | 0.00 | 79 | 1010.1 |
| 20260905031024 | 68 | 335 | 4.3 | 0.0 | 0.00 | 0.00 | 0.00 | 77 | 1010.3 |
| 20260905030524 | 68 | 319 | 2.6 | 0.0 | 0.00 | 0.00 | 0.00 | 78 | 1010.1 |
| 20260905030024 | 68 | 333 | 1.7 | 0.0 | 0.00 | 0.00 | 0.00 | 79 | 1010.0 |
| 20260905025525 | 68 | 43 | 3.5 | 0.0 | 0.00 | 0.00 | 0.00 | 78 | 1009.9 |
| 20260905025024 | 68 | 62 | 4.3 | 0.0 | 0.00 | 0.00 | 0.00 | 79 | 1009.9 |
| 20260905024524 | 68 | 338 | 4.3 | 0.0 | 0.00 | 0.00 | 0.00 | 77 | 1010.0 |
| 20260905024024 | 68 | 335 | 4.3 | 0.0 | 0.00 | 0.00 | 0.00 | 79 | 1010.0 |
| 20260905023524 | 68 | 5 | 4.3 | 0.0 | 0.00 | 0.00 | 0.00 | 77 | 1010.0 |
| 20260905023023 | 68 | 330 | 3.5 | 0.0 | 0.00 | 0.00 | 0.00 | 77 | 1010.0 |
| 20260905022525 | 67 | 331 | 3.5 | 0.0 | 0.00 | 0.00 | 0.00 | 79 | 1010.0 |
| 20260905022023 | 67 | 321 | 4.3 | 0.0 | 0.00 | 0.00 | 0.00 | 79 | 1010.1 |
| 20260905021523 | 66 | 338 | 5.2 | 0.0 | 0.00 | 0.00 | 0.00 | 81 | 1010.1 |
| 20260905021023 | 65 | 288 | 3.5 | 0.0 | 0.00 | 0.00 | 0.00 | 81 | 1010.2 |
| 20260905020522 | 65 | 287 | 1.7 | 0.0 | 0.00 | 0.00 | 0.00 | 81 | 1010.2 |
| 20260905020026 | 65 | 299 | 1.7 | 0.0 | 0.00 | 0.00 | 0.00 | 81 | 1010.3 |
| 20260905015524 | 66 | 134 | 2.6 | 0.0 | 0.00 | 0.00 | 0.00 | 82 | 1010.3 |
| 20260905015023 | 66 | 134 | 1.7 | 0.0 | 0.00 | 0.00 | 0.00 | 81 | 1010.4 |